Date,TemperatureHighF,TemperatureAvgF,TemperatureLowF,DewpointHighF,DewpointAvgF,DewpointLowF,HumidityHigh,HumidityAvg,HumidityLow,PressureMaxIn,PressureMinIn,WindSpeedMaxMPH,WindSpeedAvgMPH,GustSpeedMaxMPH,PrecipitationSumIn
2013-1-1,43,41,32,33,31,20,76,68,58,30.00,29.82,18,2,18,0.00
2013-1-2,36,30,25,21,18,14,75,59,52,30.17,29.96,20,3,20,0.00
2013-1-3,37,30,24,22,19,18,81,66,49,30.19,30.07,13,1,13,0.00
2013-1-4,40,34,27,26,24,21,78,67,56,30.11,29.97,23,3,23,0.00
2013-1-5,43,34,27,27,25,21,80,67,51,30.30,30.02,13,2,19,0.00
2013-1-6,49,38,33,38,32,26,100,78,53,30.22,29.97,7,1,10,0.09
2013-1-7,48,37,29,34,30,26,88,75,49,30.40,30.05,16,2,16,0.00
2013-1-8,52,38,27,36,31,24,100,78,54,30.42,30.33,9,1,13,0.00
2013-1-9,56,40,33,44,35,31,94,84,62,30.38,30.14,16,1,16,0.00
2013-1-10,52,44,36,37,31,29,75,60,44,30.52,30.25,17,2,17,0.00
2013-1-11,50,44,37,48,40,29,96,86,68,30.50,30.03,15,1,15,0.55
2013-1-12,50,47,45,48,46,44,100,95,92,30.15,30.02,12,1,12,0.00
2013-1-13,52,47,42,50,46,41,98,95,85,30.14,29.99,16,2,16,0.00
2013-1-14,59,52,42,57,48,35,100,87,51,30.25,29.93,17,1,17,0.14
2013-1-15,42,40,38,39,35,32,94,84,73,30.32,30.17,13,2,13,0.36
2013-1-16,44,39,37,42,38,35,100,95,91,30.18,29.78,18,3,18,0.45
2013-1-17,44,40,37,38,35,32,95,83,65,30.08,29.92,13,1,13,0.02
2013-1-18,38,32,26,34,20,12,89,62,41,30.49,29.97,25,3,25,0.00
2013-1-19,54,41,28,35,28,17,77,60,39,30.42,29.94,21,5,21,0.00
2013-1-20,58,46,34,36,29,16,70,52,33,30.03,29.71,26,5,26,0.00
2013-1-21,36,32,27,27,19,13,92,60,42,30.09,29.80,14,2,14,0.00
2013-1-22,27,21,15,24,8,0,88,57,43,30.22,29.83,23,6,23,0.01
2013-1-23,22,16,11,7,4,0,80,59,46,30.27,30.17,20,2,20,0.00
2013-1-24,26,19,11,8,6,2,82,58,36,30.41,30.11,26,5,26,0.00
2013-1-25,27,20,14,18,9,3,89,66,45,30.42,30.05,16,2,16,0.00
2013-1-26,29,21,12,16,12,9,91,71,50,30.37,30.04,21,3,21,0.01
2013-1-27,35,25,15,19,14,9,77,65,48,30.52,30.37,16,2,16,0.00
2013-1-28,37,31,22,37,27,16,100,86,76,30.49,30.00,14,2,14,0.11
2013-1-29,54,43,34,47,40,32,100,91,71,30.13,29.99,10,1,10,0.00
2013-1-30,63,54,43,58,52,42,98,92,81,30.04,29.38,40,7,40,0.04
2013-1-31,60,47,31,58,35,15,96,65,40,29.83,29.11,45,9,45,0.66
2013-2-1,34,29,24,25,15,10,81,56,42,30.25,29.83,26,4,26,0.00
2013-2-2,33,26,19,23,13,9,89,57,37,30.31,30.04,19,3,19,0.00
2013-2-3,34,28,23,27,24,20,100,84,70,30.04,29.78,12,1,12,0.05
2013-2-4,33,28,22,25,17,14,90,64,48,30.01,29.82,25,4,25,0.00
2013-2-5,36,32,28,33,30,24,94,91,84,29.95,29.85,14,1,14,0.03
2013-2-6,40,35,29,33,27,20,95,76,55,30.34,29.89,22,3,22,0.01
2013-2-7,40,31,25,36,21,16,86,66,58,30.47,30.25,14,2,14,0.00
2013-2-8,43,39,31,42,37,29,95,93,86,30.25,29.57,35,9,35,1.10
2013-2-9,32,29,26,30,27,23,95,93,85,29.96,29.71,26,7,26,0.00
2013-2-10,38,22,14,29,14,10,84,69,42,30.47,30.31,9,2,13,0.04
2013-2-11,55,47,34,54,45,29,97,94,84,30.33,29.63,27,4,27,0.31
2013-2-12,50,42,32,45,31,27,89,65,48,29.96,29.72,33,5,33,0.00
2013-2-13,44,36,27,35,30,24,95,81,61,29.95,29.64,13,2,13,0.06
2013-2-14,48,35,32,39,33,31,96,93,64,30.02,29.67,13,1,13,0.19
2013-2-15,58,43,32,45,37,31,95,81,52,30.02,29.90,13,2,13,0.00
2013-2-16,44,38,32,36,32,25,92,80,63,29.93,29.70,22,4,22,0.01
2013-2-17,34,30,22,25,14,4,73,52,37,30.01,29.65,33,8,33,0.00
2013-2-18,39,28,20,17,11,5,61,48,35,30.26,30.00,29,6,29,0.00
2013-2-19,52,42,29,46,36,16,95,79,58,30.21,29.67,22,4,22,0.25
2013-2-20,40,32,26,33,19,14,78,59,46,30.01,29.73,31,7,31,0.00
2013-2-21,37,30,24,20,17,14,69,58,48,30.25,29.98,29,7,29,0.00
2013-2-22,38,33,24,36,26,17,92,78,65,30.37,30.23,14,2,14,0.00
2013-2-23,46,42,38,44,41,36,96,95,92,30.24,29.74,14,2,14,0.28
2013-2-24,51,41,33,42,34,24,96,79,57,29.98,29.72,15,2,15,0.02
2013-2-25,46,35,29,34,27,24,83,74,54,30.22,29.97,7,0,7,0.00
2013-2-26,46,37,29,41,33,26,98,83,69,30.25,29.78,20,2,20,0.32
2013-2-27,55,46,42,53,44,40,100,93,68,29.80,29.47,19,3,19,0.41
2013-2-28,50,44,38,41,37,31,89,75,59,29.62,29.54,10,1,10,0.00
2013-3-1,47,40,33,34,31,29,91,72,54,29.76,29.60,12,2,12,0.00
2013-3-2,44,38,33,29,27,25,74,65,52,29.78,29.67,12,1,12,0.00
2013-3-3,40,34,30,25,23,21,76,63,52,29.76,29.66,13,2,13,0.00
2013-3-4,44,35,29,25,22,19,72,60,47,29.91,29.75,13,3,17,0.00
2013-3-5,50,38,30,33,27,23,76,64,50,30.00,29.90,11,1,11,0.00
2013-3-6,42,41,36,39,36,34,91,84,80,29.93,29.68,28,6,28,0.21
2013-3-7,42,37,34,36,34,32,93,88,76,30.05,29.83,18,3,18,0.14
2013-3-8,42,36,32,36,33,31,94,89,70,30.14,29.97,18,2,18,0.13
2013-3-9,58,44,34,36,29,21,90,59,25,30.29,30.13,11,2,12,0.00
2013-3-10,46,38,31,38,35,29,96,87,73,30.37,30.28,10,1,10,0.00
2013-3-11,55,45,34,49,42,32,97,90,77,30.30,30.07,11,1,11,0.00
2013-3-12,55,52,46,54,50,42,97,92,83,30.08,29.67,16,3,21,0.78
2013-3-13,53,44,38,42,34,27,90,67,41,29.90,29.79,14,1,14,0.00
2013-3-14,43,35,30,28,22,15,68,59,38,29.96,29.86,20,2,20,0.00
2013-3-15,51,40,30,30,23,15,61,50,42,30.00,29.72,18,2,18,0.00
2013-3-16,42,38,34,34,31,26,93,77,59,29.89,29.72,9,1,9,0.07
2013-3-17,40,36,30,33,26,21,94,69,50,30.27,29.89,9,1,13,0.02
2013-3-18,42,37,32,40,29,20,96,74,56,30.35,29.90,13,3,14,0.53
2013-3-19,50,43,40,41,38,23,96,85,49,29.90,29.68,10,2,12,0.29
2013-3-20,51,42,30,26,23,22,72,48,34,29.90,29.78,15,1,15,0.00
2013-3-21,40,34,30,30,27,18,90,75,51,29.79,29.63,12,1,12,0.00
2013-3-22,43,33,26,26,21,17,75,61,43,29.90,29.75,15,2,15,0.00
2013-3-23,50,37,30,27,24,22,74,59,39,29.91,29.81,17,2,17,0.00
2013-3-24,46,35,28,31,24,21,76,63,41,29.94,29.67,7,1,11,0.00
2013-3-25,40,37,34,36,34,31,95,88,71,29.67,29.41,12,3,14,0.60
2013-3-26,53,38,34,40,34,32,96,87,49,29.85,29.57,13,1,13,0.04
2013-3-27,55,44,35,35,32,28,83,63,37,29.98,29.85,15,2,15,0.00
2013-3-28,50,42,35,34,32,30,82,69,50,30.09,29.95,11,1,13,0.00
2013-3-29,57,46,35,34,32,30,82,60,38,30.14,30.04,6,1,9,0.00
2013-3-30,60,47,35,40,32,27,85,60,29,30.17,30.06,6,1,9,0.00
2013-3-31,55,46,37,49,40,31,96,79,61,30.13,29.67,13,1,13,0.44
2013-4-1,66,52,41,49,42,19,96,72,41,29.90,29.61,13,2,14,0.02
2013-4-2,47,39,29,23,20,17,73,47,31,30.08,29.90,17,2,17,0.00
2013-4-3,49,40,30,22,19,15,60,42,31,30.27,30.08,13,2,15,0.00
2013-4-4,50,40,29,34,25,16,73,55,40,30.38,30.09,12,1,12,0.00
2013-4-5,64,48,39,44,36,26,95,65,27,30.09,29.69,13,1,13,0.27
2013-4-6,48,42,37,32,24,20,77,50,38,30.31,29.96,10,2,12,0.00
2013-4-7,58,48,36,47,40,31,87,75,60,30.30,30.01,16,2,17,0.00
2013-4-8,71,60,50,53,49,45,86,69,46,30.06,29.95,11,1,11,0.00
2013-4-9,86,71,57,57,54,48,84,57,29,29.97,29.90,9,1,14,0.00
2013-4-10,70,62,53,57,53,49,94,72,57,29.95,29.77,12,2,12,0.08
2013-4-11,63,57,47,62,56,45,98,94,85,29.98,29.76,9,1,12,0.05
2013-4-12,47,46,44,46,44,43,97,96,93,29.95,29.65,18,3,18,0.53
2013-4-13,59,49,42,48,44,40,96,83,51,29.96,29.69,10,1,12,0.01
2013-4-14,62,53,43,46,40,32,94,64,35,30.18,29.95,17,1,17,0.00
2013-4-15,55,50,47,45,40,35,86,69,61,30.35,30.17,10,2,12,0.00
2013-4-16,67,57,48,57,52,44,91,83,69,30.34,30.12,11,2,11,0.00
2013-4-17,65,59,51,58,51,44,95,76,57,30.26,30.08,5,1,7,0.00
2013-4-18,58,54,47,57,49,43,96,84,73,30.31,30.09,10,1,11,0.00
2013-4-19,73,62,56,65,60,55,97,92,75,30.08,29.67,19,2,19,0.05
2013-4-20,65,54,48,63,41,30,95,64,39,30.27,29.67,17,2,17,0.29
2013-4-21,51,45,38,34,30,24,76,56,48,30.59,30.27,14,2,14,0.00
2013-4-22,48,46,40,42,38,32,85,75,66,30.61,30.43,18,4,18,0.00
2013-4-23,50,46,43,44,42,38,93,85,80,30.44,30.08,19,2,19,0.00
2013-4-24,66,49,39,55,44,37,94,85,66,30.09,29.83,14,1,14,0.00
2013-4-25,63,54,46,53,42,33,90,64,34,30.25,29.86,25,4,25,0.00
2013-4-26,64,54,41,44,40,36,85,61,36,30.37,30.25,14,2,14,0.00
2013-4-27,65,55,45,43,39,35,86,56,35,30.41,30.28,14,2,14,0.00
2013-4-28,68,54,43,51,43,35,90,68,35,30.31,30.20,12,2,12,0.00
2013-4-29,57,54,51,52,51,49,94,87,77,30.22,30.14,17,3,17,0.15
2013-4-30,61,55,50,53,48,43,93,78,60,30.30,30.15,18,4,18,0.00
2013-5-1,57,52,44,50,46,41,91,81,72,30.45,30.29,20,3,20,0.00
2013-5-2,64,53,45,48,45,43,94,78,49,30.45,30.32,13,2,13,0.00
2013-5-3,58,53,49,48,45,40,87,76,55,30.44,30.33,21,4,21,0.00
2013-5-4,60,52,45,49,46,43,94,79,60,30.34,30.24,17,3,17,0.00
2013-5-5,56,50,47,46,43,40,90,78,67,30.27,30.20,19,4,19,0.00
2013-5-6,57,52,49,51,48,46,94,88,74,30.24,30.14,17,4,17,0.00
2013-5-7,58,54,51,56,52,49,97,93,88,30.14,30.05,16,3,16,0.05
2013-5-8,74,61,58,66,58,54,98,93,64,30.05,29.93,21,3,21,0.20
2013-5-9,72,63,56,60,57,55,96,82,61,29.98,29.88,16,1,16,0.08
2013-5-10,77,66,56,64,59,54,96,79,56,29.99,29.86,14,2,14,0.00
2013-5-11,76,66,62,68,63,58,96,90,72,29.91,29.68,21,2,21,0.09
2013-5-12,70,62,50,64,48,33,96,66,33,29.94,29.66,28,2,28,0.03
2013-5-13,60,48,42,38,35,28,81,64,38,30.08,29.94,20,1,20,0.00
2013-5-14,61,46,39,40,35,31,83,66,32,30.13,30.02,12,1,16,0.00
2013-5-15,73,57,49,61,49,39,85,77,59,30.07,29.67,19,1,20,0.00
2013-5-16,77,66,58,60,57,49,95,75,40,29.84,29.68,11,0,11,0.01
2013-5-17,74,66,57,62,50,44,88,58,37,30.17,29.81,9,1,15,0.00
2013-5-18,64,59,55,58,54,50,94,84,74,30.29,30.17,13,1,13,0.13
2013-5-19,61,57,56,60,56,54,97,95,93,30.27,30.14,18,2,18,0.36
2013-5-20,76,65,61,70,64,60,99,96,81,30.15,29.96,7,0,7,0.02
2013-5-21,87,75,65,74,68,63,97,82,57,29.97,29.84,9,1,12,0.00
2013-5-22,75,70,68,72,68,66,97,94,90,29.90,29.84,9,0,9,0.00
2013-5-23,81,73,66,72,68,64,93,84,70,29.90,29.75,17,5,26,0.00
2013-5-24,68,63,45,66,61,43,97,94,81,29.95,29.67,25,1,25,0.00
2013-5-25,60,48,45,47,43,37,93,83,47,30.01,29.90,31,4,31,0.00
2013-5-26,69,59,48,44,41,38,76,53,34,30.19,29.97,25,3,25,0.00
2013-5-27,75,62,46,53,45,38,87,57,32,30.24,30.11,16,0,16,0.00
2013-5-28,67,61,54,61,56,48,96,85,63,30.20,30.09,14,0,15,0.02
2013-5-29,92,75,60,73,66,58,96,76,45,30.10,30.00,12,1,12,0.00
2013-5-30,94,81,71,75,69,65,86,69,44,30.12,30.04,10,0,10,0.00
2013-5-31,93,81,70,75,70,67,90,71,47,30.12,29.99,14,1,14,0.00
2013-6-1,93,79,70,75,69,66,89,72,47,30.02,29.91,18,2,18,0.00
2013-6-2,89,78,71,74,69,67,89,76,57,29.92,29.79,23,3,23,0.00
2013-6-3,77,72,68,72,69,66,97,92,81,29.85,29.77,12,1,12,0.36
2013-6-4,73,65,58,67,54,49,95,69,43,30.08,29.85,14,1,16,0.01
2013-6-5,71,64,55,60,54,46,93,72,58,30.18,30.07,14,1,14,0.00
2013-6-6,70,65,59,64,61,57,98,87,71,30.11,29.96,16,2,16,0.05
2013-6-7,71,66,63,70,65,61,98,97,94,29.97,29.52,22,2,22,2.96
2013-6-8,77,69,59,69,65,58,98,87,74,30.04,29.49,10,1,10,0.58
2013-6-9,81,69,63,68,63,60,93,81,58,30.16,30.04,10,0,10,0.00
2013-6-10,70,68,66,70,66,63,98,93,85,30.14,29.80,13,1,13,0.00
2013-6-11,83,74,69,71,69,63,98,86,59,29.80,29.63,14,1,14,0.03
2013-6-12,81,73,67,64,62,59,83,68,49,29.84,29.72,14,1,14,0.00
2013-6-13,75,68,62,70,62,59,96,80,73,29.83,29.38,12,1,12,0.63
2013-6-14,71,62,55,61,57,53,95,85,65,29.89,29.43,11,1,11,0.04
2013-6-15,80,68,59,64,59,56,92,76,46,30.00,29.88,13,0,13,0.00
2013-6-16,85,68,62,72,62,59,92,82,54,29.99,29.79,13,0,13,0.00
2013-6-17,87,76,67,72,68,64,94,78,55,29.91,29.81,10,0,10,0.00
2013-6-18,77,70,64,72,66,63,96,88,74,29.89,29.77,7,0,7,2.19
2013-6-19,74,68,63,64,59,54,96,74,52,30.11,29.82,12,1,12,0.00
2013-6-20,77,71,64,60,57,53,78,62,48,30.26,30.23,6,1,14,0.00
2013-6-21,78,69,58,65,58,56,92,71,51,30.30,30.24,6,1,12,0.00
2013-6-22,80,70,60,69,62,58,95,77,53,30.25,30.13,10,1,10,0.00
2013-6-23,85,75,63,76,68,58,94,80,67,30.19,30.05,12,1,12,0.02
2013-6-24,94,79,71,77,72,64,97,81,49,30.07,29.96,11,0,11,0.02
2013-6-25,92,80,69,77,71,66,94,77,52,29.99,29.82,10,1,11,0.00
2013-6-26,92,81,72,76,71,66,95,71,51,29.86,29.75,9,1,9,0.29
2013-6-27,84,77,71,77,73,70,97,89,74,29.81,29.58,13,1,13,0.02
2013-6-28,88,78,72,76,72,69,94,82,59,29.59,29.46,11,1,11,0.05
2013-6-29,83,75,70,75,71,68,96,88,70,29.68,29.48,9,1,13,0.05
2013-6-30,77,75,74,74,73,72,95,93,91,30.12,29.79,5,1,11,0.02
2013-7-1,84,76,74,77,73,72,96,92,79,30.03,29.87,5,1,12,0.08
2013-7-2,84,76,74,77,73,72,94,91,78,30.18,30.02,13,1,13,0.01
2013-7-3,84,77,72,78,74,69,96,88,77,30.23,30.15,15,1,15,0.53
2013-7-4,91,81,74,79,75,71,96,83,61,30.25,30.16,13,1,13,0.00
2013-7-5,93,82,73,80,74,70,95,78,55,30.21,30.09,11,1,14,0.00
2013-7-6,94,84,75,79,75,73,94,75,54,30.14,30.01,14,0,14,0.00
2013-7-7,95,85,75,79,75,71,91,74,55,30.06,29.92,11,0,11,0.00
2013-7-8,89,79,72,74,71,68,90,77,56,30.04,29.98,14,0,14,0.00
2013-7-9,88,79,72,78,73,68,95,81,61,30.06,29.98,13,0,13,0.01
2013-7-10,89,77,73,78,73,70,95,90,68,30.01,29.81,12,0,12,0.06
2013-7-11,83,78,76,76,74,72,95,88,73,29.89,29.81,9,0,10,0.07
2013-7-12,77,73,70,74,69,66,97,88,71,30.03,29.88,20,3,22,0.10
2013-7-13,85,75,71,79,73,70,98,95,79,30.27,30.02,15,1,15,0.00
2013-7-14,88,80,74,79,76,73,96,85,70,30.32,30.23,10,0,10,0.00
2013-7-15,94,84,74,78,75,72,94,76,52,30.25,30.10,13,0,13,0.00
2013-7-16,92,85,77,76,72,68,86,68,50,30.16,30.10,14,1,14,0.00
2013-7-17,94,84,75,76,73,70,90,70,49,30.16,30.06,12,0,12,0.00
2013-7-18,97,87,76,82,76,70,88,72,53,30.07,29.93,10,0,10,0.00
2013-7-19,99,84,79,82,78,76,92,82,49,29.97,29.80,14,0,14,0.00
2013-7-20,96,86,78,78,77,71,91,74,52,29.83,29.72,20,1,21,0.00
2013-7-21,86,76,72,76,72,70,94,89,72,29.93,29.82,12,0,12,0.02
2013-7-22,86,79,75,78,76,73,95,90,78,29.92,29.76,13,0,13,0.01
2013-7-23,87,78,74,78,74,72,97,91,70,29.76,29.55,15,0,15,0.57
2013-7-24,86,78,71,73,69,60,93,76,59,29.88,29.61,15,1,15,0.00
2013-7-25,73,67,65,62,60,59,89,80,65,30.00,29.87,15,4,17,0.00
2013-7-26,80,71,65,69,65,61,91,81,63,30.04,29.95,10,1,12,0.00
2013-7-27,85,74,66,71,67,63,93,79,57,30.05,29.95,13,1,13,0.00
2013-7-28,80,74,67,73,70,65,96,87,74,29.97,29.90,9,1,15,0.00
2013-7-29,86,75,68,74,68,59,97,81,49,30.09,29.92,9,0,14,1.04
2013-7-30,85,73,62,63,61,58,89,68,45,30.15,30.08,5,0,5,0.00
2013-7-31,82,73,63,67,63,60,90,73,54,30.14,30.02,9,0,9,0.00
2013-8-1,76,72,70,70,68,65,96,88,79,30.03,29.80,14,0,14,0.33
2013-8-2,87,76,69,69,68,65,97,77,51,29.91,29.78,10,0,10,0.00
2013-8-3,78,73,68,70,68,65,92,84,72,29.91,29.86,6,0,7,0.00
2013-8-4,80,72,64,65,61,56,95,71,48,29.96,29.83,10,0,10,0.00
2013-8-5,79,70,61,63,57,51,80,66,41,30.04,29.95,9,0,9,0.00
2013-8-6,80,71,60,66,60,55,86,70,46,30.10,30.02,10,1,10,0.00
2013-8-7,78,72,70,70,66,65,93,84,74,30.12,30.05,11,1,11,0.03
2013-8-8,84,76,71,77,73,70,97,90,77,30.06,29.99,10,1,11,1.65
2013-8-9,88,79,75,80,75,72,96,89,72,30.01,29.80,11,1,11,0.35
2013-8-10,82,77,72,75,70,65,96,80,61,30.02,29.85,7,0,7,0.00
2013-8-11,80,73,65,70,65,59,92,76,59,30.10,30.01,10,1,10,0.00
2013-8-12,82,74,68,73,70,66,96,88,72,30.02,29.91,6,0,6,0.00
2013-8-13,76,74,71,75,72,69,97,94,85,29.91,29.69,12,0,12,0.89
2013-8-14,74,69,62,70,58,52,94,69,53,30.03,29.71,6,1,15,0.00
2013-8-15,77,66,56,61,56,52,87,70,46,30.13,30.03,10,0,10,0.00
2013-8-16,80,65,58,63,57,54,92,79,46,30.18,30.11,11,0,11,0.00
2013-8-17,79,67,60,64,60,57,91,78,50,30.25,30.18,7,0,7,0.00
2013-8-18,74,68,65,66,63,59,90,83,69,30.24,30.11,9,1,11,0.00
2013-8-19,78,66,62,67,61,58,89,83,60,30.13,30.03,8,0,8,0.00
2013-8-20,85,75,66,73,68,64,96,82,63,30.12,30.05,11,1,11,0.00
2013-8-21,90,78,68,76,70,65,96,77,45,30.16,30.05,9,0,9,0.00
2013-8-22,85,75,71,75,71,68,94,87,70,30.06,29.87,7,0,7,0.05
2013-8-23,80,73,68,69,67,60,95,81,54,30.06,29.85,4,0,5,0.00
2013-8-24,75,69,62,64,62,59,92,78,61,30.32,30.05,13,1,13,0.03
2013-8-25,82,69,59,63,58,54,96,71,44,30.39,30.24,11,1,11,0.00
2013-8-26,87,74,64,69,64,56,86,73,51,30.25,29.92,11,1,11,0.00
2013-8-27,86,78,70,72,69,67,92,77,54,29.92,29.82,9,0,9,0.01
2013-8-28,81,75,69,74,71,67,94,88,77,29.88,29.81,5,0,5,0.00
2013-8-29,76,73,70,72,69,66,96,87,75,30.01,29.84,18,2,18,0.00
2013-8-30,85,75,69,72,69,66,91,82,66,30.01,29.87,11,0,11,0.00
2013-8-31,91,78,69,78,72,67,95,83,61,29.89,29.78,10,1,14,0.00
2013-9-1,88,78,74,78,74,72,95,87,70,29.84,29.76,14,1,14,0.00
2013-9-2,79,76,72,75,74,71,96,94,86,29.78,29.70,7,0,7,0.13
2013-9-3,83,75,68,75,69,60,98,82,59,29.87,29.69,14,0,14,0.00
2013-9-4,84,71,62,62,60,57,90,69,43,30.00,29.87,16,0,16,0.00
2013-9-5,79,70,61,65,59,48,89,69,47,30.10,29.94,10,1,14,0.00
2013-9-6,71,62,55,54,50,47,80,67,50,30.22,30.11,14,1,14,0.00
2013-9-7,78,65,51,60,54,48,91,70,38,30.12,29.91,15,1,15,0.00
2013-9-8,84,69,65,69,62,51,90,79,51,30.04,29.80,17,0,17,0.00
2013-9-9,75,68,61,63,56,51,82,66,54,30.21,30.04,13,1,13,0.00
2013-9-10,89,77,69,76,70,63,88,80,66,30.17,30.04,8,1,10,0.00
2013-9-11,95,82,73,80,74,70,93,78,57,30.11,29.98,14,1,14,0.00
2013-9-12,91,76,72,77,71,68,93,86,59,29.99,29.68,17,1,17,0.01
2013-9-13,77,70,61,69,63,53,96,79,56,29.83,29.62,20,1,20,0.18
2013-9-14,70,60,53,53,50,47,86,71,53,30.12,29.83,18,1,18,0.00
2013-9-15,76,58,47,59,49,44,94,75,43,30.20,30.08,6,0,12,0.00
2013-9-16,68,63,60,62,58,54,92,85,70,30.18,30.02,13,0,13,0.00
2013-9-17,62,56,49,54,45,41,84,67,52,30.40,30.18,17,2,19,0.00
2013-9-18,70,58,47,54,49,43,87,74,52,30.33,30.18,12,1,12,0.00
2013-9-19,76,61,49,59,53,47,95,77,47,30.19,30.07,14,1,14,0.00
2013-9-20,77,60,53,63,55,51,95,85,55,30.08,29.99,15,0,15,0.00
2013-9-21,79,68,56,69,63,54,96,88,63,30.01,29.67,20,2,20,0.20
2013-9-22,71,66,56,68,59,45,96,82,51,29.89,29.64,14,2,18,0.38
2013-9-23,68,57,48,50,46,43,84,68,50,30.02,29.89,15,1,15,0.00
2013-9-24,71,58,47,53,48,43,88,71,47,30.04,29.87,15,1,15,0.00
2013-9-25,73,61,53,59,53,47,89,75,59,29.94,29.86,5,0,9,0.00
2013-9-26,70,60,53,61,56,51,94,85,68,30.00,29.91,12,0,12,0.00
2013-9-27,68,64,64,55,54,53,73,70,62,30.23,30.10,6,1,12,0.00
2013-9-28,70,64,58,58,56,54,92,77,64,30.29,30.20,9,1,16,0.00
2013-9-29,69,61,55,58,55,51,94,82,61,30.20,30.05,11,1,15,0.00
2013-9-30,71,61,54,59,55,50,93,82,63,30.05,29.97,12,1,12,0.00
2013-10-1,82,66,54,64,58,52,95,77,52,30.00,29.89,13,0,14,0.00
2013-10-2,87,70,60,66,61,58,94,76,46,30.00,29.91,14,1,16,0.00
2013-10-3,78,70,62,62,60,57,90,72,51,30.10,30.00,10,0,10,0.00
2013-10-4,89,73,62,71,65,59,95,78,50,30.05,29.95,10,0,10,0.00
2013-10-5,70,68,66,67,65,64,96,91,83,30.07,29.99,10,0,10,0.12
2013-10-6,73,67,66,70,66,65,97,96,91,30.06,29.99,11,0,11,0.00
2013-10-7,79,70,60,72,67,57,96,91,76,30.00,29.78,25,4,25,0.16
2013-10-8,66,60,52,57,50,47,90,72,53,30.27,29.99,15,1,15,0.00
2013-10-9,63,62,60,55,52,50,79,71,64,30.32,30.22,24,5,24,0.00
2013-10-10,64,60,58,62,57,54,96,89,79,30.22,29.99,29,7,29,0.10
2013-10-11,64,63,62,62,61,60,96,94,87,30.02,29.93,11,3,18,0.02
2013-10-12,67,64,62,61,58,56,92,83,76,30.20,30.00,18,3,18,0.00
2013-10-13,62,61,60,59,56,55,88,85,81,30.31,30.20,19,3,19,0.00
2013-10-14,64,57,51,58,52,49,95,83,71,30.27,30.02,4,0,7,0.01
2013-10-15,67,58,50,58,53,49,96,85,65,30.24,30.07,4,1,11,0.00
2013-10-16,64,61,59,61,59,57,96,93,87,30.08,29.91,5,0,5,0.01
2013-10-17,72,65,61,66,62,60,96,91,81,29.91,29.70,7,0,7,0.00
2013-10-18,69,61,50,64,51,44,94,71,50,29.98,29.69,14,1,14,0.00
2013-10-19,66,55,46,57,50,42,94,83,65,29.98,29.75,7,0,9,0.00
2013-10-20,64,56,45,57,45,40,94,70,45,30.07,29.75,10,1,10,0.00
2013-10-21,69,54,42,50,44,39,92,72,39,30.14,29.98,17,1,17,0.00
2013-10-22,73,55,49,55,49,42,93,83,45,29.98,29.75,12,0,12,0.00
2013-10-23,52,49,44,50,44,38,93,82,69,29.80,29.57,9,0,9,0.00
2013-10-24,56,45,38,40,35,30,92,72,43,30.03,29.76,13,1,13,0.00
2013-10-25,56,44,36,39,34,31,84,70,48,30.24,30.02,13,0,13,0.00
2013-10-26,59,46,33,42,35,30,92,69,39,30.23,29.90,13,0,13,0.00
2013-10-27,61,50,41,40,38,34,80,63,44,30.13,29.87,12,0,12,0.00
2013-10-28,65,49,36,44,39,32,86,69,43,30.27,30.11,7,0,7,0.00
2013-10-29,56,50,45,49,44,40,90,78,69,30.36,30.27,7,1,8,0.00
2013-10-30,57,50,42,55,48,40,95,93,88,30.33,30.17,3,0,3,0.00
2013-10-31,69,60,52,62,57,51,97,90,78,30.21,29.96,15,1,15,0.00
2013-11-1,70,66,60,65,62,58,96,89,81,29.81,29.58,27,6,27,0.00
2013-11-2,67,58,54,59,55,44,99,90,61,29.77,29.60,12,0,12,0.14
2013-11-3,55,48,36,45,37,25,87,68,48,30.41,29.77,20,2,20,0.02
2013-11-4,47,41,34,38,30,22,77,65,54,30.61,30.41,13,1,14,0.00
2013-11-5,58,49,40,46,42,34,91,77,62,30.61,30.46,10,0,10,0.00
2013-11-6,64,53,38,58,48,37,97,84,61,30.47,30.06,11,1,11,0.01
2013-11-7,64,57,39,61,54,36,95,89,75,30.06,29.75,14,1,14,0.00
2013-11-8,52,43,35,38,33,30,92,68,48,30.23,29.94,14,1,14,0.01
2013-11-9,53,43,32,39,32,28,86,67,43,30.30,29.99,9,0,9,0.05
2013-11-10,65,52,43,42,36,30,78,57,35,30.07,29.82,19,2,19,0.01
2013-11-11,58,49,38,39,34,29,74,56,41,30.21,29.97,10,1,10,0.00
2013-11-12,50,40,30,41,29,19,89,66,52,30.28,29.90,13,1,13,0.00
2013-11-13,40,32,26,22,18,14,72,57,35,30.36,30.27,13,1,13,0.00
2013-11-14,57,36,30,30,22,18,74,60,23,30.29,30.17,10,1,14,0.00
2013-11-15,60,45,37,41,35,30,86,70,41,30.25,30.15,5,0,5,0.00
2013-11-16,49,44,39,47,39,34,93,83,74,30.32,30.22,4,0,4,0.04
2013-11-17,66,55,49,62,54,48,97,95,86,30.24,29.77,9,0,9,0.00
2013-11-18,69,60,49,62,46,32,97,65,33,29.78,29.62,11,1,15,0.17
2013-11-19,50,45,33,33,30,25,74,54,45,30.32,29.78,12,2,14,0.00
2013-11-20,45,37,30,28,25,22,77,63,42,30.57,30.32,12,1,12,0.00
2013-11-21,55,44,33,45,36,23,86,72,61,30.57,30.37,12,1,12,0.00
2013-11-22,60,52,46,54,48,42,94,88,78,30.37,29.90,12,0,12,0.00
2013-11-23,54,44,34,52,31,20,93,61,42,30.01,29.90,20,2,20,0.00
2013-11-24,34,27,21,21,7,5,59,42,33,30.40,30.00,22,3,22,0.00
2013-11-25,38,28,19,20,14,7,72,56,39,30.50,30.34,11,1,11,0.00
2013-11-26,54,41,31,53,33,20,96,75,46,30.35,29.68,14,1,14,0.47
2013-11-27,62,48,34,62,46,25,97,92,68,29.78,29.30,20,4,20,1.19
2013-11-28,38,32,26,27,20,17,81,62,44,30.47,29.78,20,2,20,0.01
2013-11-29,41,34,27,25,23,21,85,66,49,30.70,30.46,4,0,5,0.00
2013-11-30,42,34,28,38,25,18,88,68,58,30.70,30.33,12,1,12,0.00
2013-12-1,52,41,31,39,35,28,93,79,56,30.33,30.00,6,0,6,0.00
2013-12-2,53,40,34,37,34,31,93,78,49,30.00,29.86,5,0,5,0.00
2013-12-3,55,44,35,43,39,33,95,85,60,29.99,29.84,5,0,5,0.00
2013-12-4,55,45,34,48,42,32,95,89,75,30.10,29.99,6,0,6,0.00
2013-12-5,63,55,48,58,53,46,97,93,83,30.10,29.93,12,0,12,0.00
2013-12-6,62,51,40,61,50,38,97,95,91,30.10,29.87,10,1,10,0.32
2013-12-7,42,37,31,38,32,25,95,82,67,30.49,30.05,12,1,12,0.22
2013-12-8,39,32,28,38,28,19,96,85,68,30.56,30.28,11,0,11,0.11
2013-12-9,46,43,39,45,42,38,100,96,95,30.29,30.08,14,3,14,0.68
2013-12-10,36,33,27,34,31,25,100,94,91,30.15,29.85,5,0,11,0.00
2013-12-11,34,25,21,27,22,18,93,88,70,30.36,30.15,14,0,14,0.04
2013-12-12,29,24,19,21,17,11,89,78,47,30.35,30.18,14,0,14,0.00
2013-12-13,39,28,18,22,18,13,81,67,47,30.32,30.14,18,1,18,0.01
2013-12-14,50,38,28,49,34,22,97,87,68,30.41,29.65,18,2,18,0.73
2013-12-15,55,40,31,54,35,25,97,85,67,29.87,29.46,20,2,20,0.24
2013-12-16,33,28,21,26,16,12,81,62,45,30.23,29.86,15,2,15,0.00
2013-12-17,45,33,25,43,29,15,94,85,60,30.21,29.89,6,0,6,0.06
2013-12-18,39,30,24,28,24,21,91,78,54,30.18,29.89,18,2,18,0.00
2013-12-19,50,39,24,35,29,21,89,68,48,30.20,30.03,9,0,9,0.00
2013-12-20,56,48,39,49,38,32,91,69,50,30.09,29.98,11,0,11,0.00
2013-12-21,70,59,51,58,52,47,92,80,61,30.00,29.89,18,2,18,0.00
2013-12-22,73,64,59,66,60,56,94,88,77,29.98,29.84,27,6,27,0.00
2013-12-23,63,57,43,62,55,40,97,92,87,30.12,29.86,19,2,19,0.32
2013-12-24,43,37,28,41,27,23,92,67,51,30.34,30.07,21,6,21,0.01
2013-12-25,32,27,21,23,15,11,81,62,45,30.51,30.34,20,2,20,0.00
2013-12-26,44,32,25,29,24,20,87,75,55,30.41,30.15,7,1,11,0.00
2013-12-27,47,33,23,26,22,20,92,69,38,30.38,30.25,16,1,16,0.00
2013-12-28,59,42,25,34,29,21,89,64,37,30.29,30.07,12,2,14,0.00
2013-12-29,58,46,41,58,41,31,98,83,61,30.07,29.37,30,3,30,1.25
2013-12-30,48,39,27,42,33,17,94,79,60,30.16,29.69,20,3,20,0.00
2013-12-31,40,31,24,28,19,15,76,62,52,30.29,30.05,15,3,22,0.00
2014-1-1,44,33,23,34,23,15,86,67,44,30.40,30.18,11,1,13,0.00
2014-1-2,42,35,26,39,33,24,100,91,85,30.18,29.56,26,8,26,0.00